Arcata, CA

9:13 AM PDT on October 20, 2017 (GMT -0700)
Arcata

Weather History for KACV - April, 2014

Change the Weather History Date:

Saturday, April 19, 2014

  Actual Average Record
Temperature  
Mean Temperature 50 °F -  
Max Temperature 57 °F 55 °F 68 °F (2016)
Min Temperature 45 °F 41 °F 33 °F (2002)
Degree Days  
Heating Degree Days 15    
Moisture  
Dew Point 47 °F    
Average Humidity 86    
Maximum Humidity 93    
Minimum Humidity 64    
Precipitation  
Precipitation 0.07 in - - ()
Sea Level Pressure  
Sea Level Pressure 30.12 in    
Wind  
Wind Speed 5 mph (South)    
Max Wind Speed 12 mph    
Max Gust Speed -    
Visibility 8 miles    
Events Rain    
Averages and records for this station are not official NWS values.
T = Trace of Precipitation, MM = Missing Value Source: NWS Daily Summary

Daily Weather History Graph

Daily Weather History Graph

Search for Another Location

Airport or City:

Trip Planner

Search our weather history database for the weather conditions in past years. The results will help you decide how hot, cold, wet, or windy it might be!

Date:

Astronomy

Apr. 19, 2014 Rise Set
Actual Time 6:31 AM PDT 8:00 PM PDT
Civil Twilight 6:02 AM PDT 8:29 PM PDT
Nautical Twilight 5:27 AM PDT 9:04 PM PDT
Astronomical Twilight 4:50 AM PDT 9:41 PM PDT
Moon No Moon Rise 9:54 AM PDT (4/19)
Length of Visible Light 14h 27m
Length of Day
13h 29m
Waning Gibbous, 77% of the Moon is Illuminated
Apr 19
Waning Gibbous
Apr 22
Last Quarter
Apr 28
New
May 6
First Quarter
May 14
Full

Hourly Weather History & Observations

Time (PDT) Temp. Windchill Dew Point Humidity Pressure Visibility Wind Dir Wind Speed Gust Speed Precip Events Conditions
12:01 AM 45.0 °F 42.6 °F 42.1 °F 90% 29.96 in 10.0 mi ESE 4.6 mph - N/A   Mostly Cloudy
12:09 AM 46.0 °F 43.1 °F 43.0 °F 89% 29.96 in 10.0 mi ESE 5.8 mph - N/A   Overcast
12:39 AM 48.0 °F - 46.0 °F 93% 29.97 in 10.0 mi ESE 4.6 mph - N/A   Overcast
12:53 AM 48.9 °F - 46.0 °F 90% 29.99 in 10.0 mi ESE 4.6 mph - N/A   Overcast
1:04 AM 48.9 °F - 46.0 °F 90% 29.98 in 10.0 mi ESE 3.5 mph - N/A   Overcast
2:53 AM 48.0 °F - 45.0 °F 89% 30.01 in 10.0 mi ESE 4.6 mph - N/A   Overcast
3:39 AM 46.9 °F - 45.0 °F 93% 29.99 in 10.0 mi SSW 4.6 mph - N/A   Overcast
3:53 AM 46.9 °F - 45.0 °F 93% 30.00 in 4.0 mi SE 3.5 mph - N/A   Overcast
4:04 AM 46.9 °F - 44.1 °F 90% 29.99 in 1.8 mi SSE 4.6 mph - N/A   Overcast
4:18 AM 46.0 °F 44.8 °F 44.1 °F 93% 29.98 in 3.0 mi SE 3.5 mph - N/A   Overcast
4:53 AM 46.0 °F 43.1 °F 44.1 °F 93% 29.99 in 10.0 mi ESE 5.8 mph - N/A   Overcast
5:53 AM 46.9 °F - 45.0 °F 93% 30.02 in 6.0 mi Calm Calm - N/A   Overcast
6:53 AM 46.0 °F 43.1 °F 43.0 °F 89% 30.04 in 10.0 mi ESE 5.8 mph - N/A   Overcast
7:25 AM 45.0 °F 41.8 °F 43.0 °F 93% 30.02 in 10.0 mi SE 5.8 mph - N/A   Partly Cloudy
7:53 AM 48.9 °F - 44.1 °F 83% 30.04 in 10.0 mi South 4.6 mph - N/A   Clear
8:53 AM 51.1 °F - 44.1 °F 77% 30.05 in 10.0 mi SSE 6.9 mph - N/A   Mostly Cloudy
9:53 AM 54.0 °F - 45.0 °F 72% 30.08 in 10.0 mi SW 4.6 mph - N/A   Overcast
10:45 AM 55.9 °F - 45.0 °F 67% 30.08 in 10.0 mi SSW 5.8 mph - N/A   Overcast
10:53 AM 55.9 °F - 44.1 °F 64% 30.10 in 10.0 mi Variable 3.5 mph - N/A   Overcast
11:53 AM 54.0 °F - 46.9 °F 77% 30.14 in 4.0 mi SW 4.6 mph - 0.00 in   Haze
11:56 AM 53.1 °F - 48.0 °F 83% 30.12 in 2.5 mi SW 3.5 mph - 0.00 in Rain Light Rain
11:58 AM 53.1 °F - 48.0 °F 83% 30.12 in 1.8 mi SSW 3.5 mph - 0.01 in Rain Light Rain
12:08 PM 53.1 °F - 48.9 °F 86% 30.13 in 2.0 mi SW 3.5 mph - 0.01 in Rain Light Rain
12:17 PM 53.1 °F - 48.9 °F 86% 30.13 in 1.2 mi SSE 3.5 mph - 0.02 in Rain Light Rain
12:28 PM 53.1 °F - 50.0 °F 89% 30.14 in 1.2 mi Calm Calm - 0.04 in Rain Rain
12:53 PM 54.0 °F - 51.1 °F 90% 30.17 in 1.8 mi Calm Calm - 0.06 in Rain Light Rain
1:01 PM 53.1 °F - 50.0 °F 89% 30.15 in 2.5 mi Calm Calm - 0.00 in Rain Light Rain
1:24 PM 55.0 °F - 53.1 °F 93% 30.16 in 5.0 mi SSW 5.8 mph - 0.01 in Rain Light Rain
1:41 PM 55.0 °F - 52.0 °F 89% 30.16 in 10.0 mi SW 8.1 mph - 0.01 in   Overcast
1:53 PM 54.0 °F - 50.0 °F 86% 30.19 in 10.0 mi SW 6.9 mph - 0.01 in   Overcast
2:14 PM 54.0 °F - 50.0 °F 86% 30.19 in 10.0 mi SW 8.1 mph - N/A   Overcast
2:53 PM 55.0 °F - 50.0 °F 83% 30.22 in 10.0 mi West 6.9 mph - N/A   Overcast
3:53 PM 55.0 °F - 50.0 °F 83% 30.23 in 10.0 mi WNW 5.8 mph - N/A   Overcast
4:08 PM 55.0 °F - 50.0 °F 83% 30.21 in 10.0 mi West 4.6 mph - N/A   Overcast
4:38 PM 55.9 °F - 51.1 °F 84% 30.21 in 10.0 mi West 4.6 mph - N/A   Overcast
4:53 PM 55.9 °F - 51.1 °F 84% 30.23 in 10.0 mi West 6.9 mph - N/A   Overcast
5:53 PM 55.9 °F - 50.0 °F 80% 30.23 in 10.0 mi NW 9.2 mph - N/A   Overcast
6:43 PM 55.0 °F - 50.0 °F 83% 30.21 in 8.0 mi NNW 8.1 mph - N/A   Mostly Cloudy
6:53 PM 55.0 °F - 48.9 °F 80% 30.23 in 10.0 mi NNW 11.5 mph - N/A   Mostly Cloudy
7:02 PM 55.0 °F - 48.9 °F 80% 30.21 in 9.0 mi NNW 10.4 mph - N/A   Scattered Clouds
7:53 PM 52.0 °F - 48.0 °F 86% 30.23 in 8.0 mi NNW 6.9 mph - N/A   Clear
8:53 PM 51.1 °F - 46.9 °F 86% 30.25 in 8.0 mi Calm Calm - N/A   Clear
9:53 PM 48.0 °F - 45.0 °F 89% 30.26 in 10.0 mi NE 3.5 mph - N/A   Clear
10:53 PM 46.0 °F - 43.0 °F 89% 30.26 in 9.0 mi Calm Calm - N/A   Clear
11:53 PM 46.0 °F 43.9 °F 44.1 °F 93% 30.28 in 9.0 mi East 4.6 mph - N/A   Clear